Temp
62 62 61 61 61 61 61 60 60 60 61 61 61 61 62 62 62 72 79 83 83 72 76 83 83 82 82 81 80 77 76 70 70 73 73 77 77 76 78 78 75 76 76 79 80
61 61 61 61 61 61 61 60 60 60 60 61 61 61 61 61 73 77 81 74 74 74 85 82 80 81 82 79 80 79 75 72 76 77 77 77 78 77 77 75 72 74 78 79 80
61 61 61 61 61 61 60 60 60 61 61 61 61 61 61 64 78 82 76 74 74 79 85 83 81 81 78 80 77 74 74 75 76 78 82 78 75 76 77 73 76 75 75 78 80
61 61 61 61 61 61 60 60 60 61 61 61 61 61 61 72 70 85 75 74 74 85 84 81 81 78 76 75 77 75 76 78 78 79 79 78 78 76 75 79 82 81 79 79 81
60 60 60 60 60 60 60 60 60 60 60 60 61 61 71 77 80 84 76 77 84 84 82 81 80 78 75 75 75 75 76 77 80 79 79 79 76 77 76 78 80 79 78 79 79
59 59 59 60 60 60 60 59 59 59 59 60 61 62 75 74 86 84 83 82 85 85 82 82 81 80 77 75 75 77 77 77 78 77 77 77 75 77 75 77 76 76 77 78 79
59 59 59 59 59 60 60 59 58 59 60 61 63 70 74 80 86 85 85 86 85 85 83 84 84 82 78 75 77 77 75 76 76 77 75 78 70 73 78 77 74 75 76 76 77
58 58 58 59 59 59 60 59 58 60 61 63 64 73 74 85 85 84 85 84 84 85 85 86 85 81 79 78 75 73 73 70 75 76 75 77 68 74 76 75 73 75 75 75 76
58 57 58 58 59 59 58 57 60 62 64 65 72 74 75 82 82 88 88 86 85 83 85 85 83 75 76 74 70 69 67 67 70 77 74 73 72 77 77 75 73 74 75 75 76
58 57 57 58 58 58 57 58 62 65 69 72 74 71 80 79 85 85 84 86 84 82 81 79 77 73 72 71 62 65 65 66 67 72 73 72 72 72 74 74 73 74 75 75 75
57 57 57 57 57 57 60 70 74 73 73 74 74 73 77 85 87 84 85 84 82 79 72 72 71 67 71 70 69 69 67 66 68 72 72 71 72 72 72 73 74 73 73 74 75
56 57 57 57 57 56 61 72 69 70 66 73 73 73 78 83 76 81 88 79 76 70 70 70 67 72 71 70 70 68 66 66 68 70 71 69 69 70 71 72 75 74 74 74 75
55 56 56 56 55 62 62 70 72 71 64 70 73 73 77 81 75 77 84 79 74 69 69 67 70 70 71 68 67 66 66 64 66 67 68 68 66 66 68 71 73 74 75 75 75
55 55 56 55 62 60 68 69 70 69 62 65 69 75 77 80 73 84 85 80 73 70 68 69 72 69 70 67 69 63 69 68 66 65 61 64 59 64 67 67 68 73 73 74 75
55 56 55 54 56 63 65 66 70 68 48 69 71 83 77 77 77 76 82 79 71 70 70 68 69 68 67 69 70 66 69 66 64 63 61 61 60 67 63 66 68 67 70 74 77
55 56 54 56 54 60 63 65 69 61 47 64 73 71 71 74 74 76 77 79 75 70 69 70 73 73 72 68 70 67 65 62 61 61 53 59 59 63 65 66 66 68 71 74 77
55 54 54 59 64 63 64 69 58 50 65 62 65 70 70 69 70 73 71 69 67 60 60 65 68 71 73 68 68 67 63 55 52 51 52 56 55 63 65 67 69 70 72 75 77
53 52 54 59 62 61 65 65 48 57 58 66 66 67 65 68 69 68 68 65 66 66 60 59 57 68 72 71 68 64 64 51 41 49 54 55 52 63 66 69 70 74 75 75 75
51 57 59 65 62 60 65 54 55 57 63 62 65 62 61 66 67 66 66 67 70 68 62 58 59 68 70 70 70 61 59 63 52 48 51 58 58 66 67 67 69 71 71 73 72
52 54 63 64 63 64 62 51 57 63 65 64 57 60 56 60 62 63 63 68 67 69 72 65 57 65 66 71 67 66 65 56 55 43 44 53 52 58 63 66 69 69 70 72 68
55 58 66 65 63 64 55 56 59 66 67 63 59 58 59 59 62 61 61 68 68 67 70 67 63 61 66 65 64 62 61 57 58 54 46 45 55 65 67 70 69 72 72 70 69
52 55 64 65 60 55 56 56 55 64 67 65 64 62 59 60 59 61 61 64 68 68 64 67 64 58 63 65 66 65 64 63 55 50 48 49 53 66 65 67 67 70 70 68 68
49 50 63 62 54 54 55 57 60 61 61 61 60 62 62 59 55 59 63 69 68 67 64 63 59 54 56 62 63 62 62 60 57 56 50 44 54 64 64 64 66 66 66 65 64
51 50 57 58 54 52 50 54 55 62 60 61 61 62 59 57 59 58 61 66 66 66 60 64 57 59 50 60 63 57 58 60 60 53 55 52 59 64 63 63 63 63 64 65 64
50 47 48 49 52 50 50 52 52 53 59 60 58 55 54 52 54 55 57 59 65 61 61 61 57 56 58 60 60 59 60 58 57 59 54 59 56 64 62 63 63 63 63 62 61
48 48 49 49 47 48 48 48 49 51 53 54 54 55 57 54 55 52 54 55 53 59 59 57 55 56 54 58 59 57 60 60 60 59 58 58 56 63 61 64 63 63 63 60 58
48 49 49 45 46 47 48 47 48 51 55 56 54 54 54 57 62 63 62 60 59 54 54 52 53 54 51 56 55 50 57 57 59 61 62 55 63 62 60 62 61 61 60 57 55
MSLP
1018.13 1017.66 1017.18 1016.71 1016.32 1015.94 1015.58 1015.24 1014.91 1014.62 1014.40 1014.19 1013.94 1013.70 1013.47 1013.15 1012.74 1012.49 1011.28 1010.50 1010.46 1010.66 1010.85 1010.77 1010.64 1010.35 1010.19 1010.06 1010.25 1010.27 1009.59 1009.64 1009.83 1009.75 1010.26 1010.97 1011.02 1012.07 1012.43 1012.37 1013.13 1013.68 1013.85 1014.56 1015.34
1018.22 1017.72 1017.24 1016.71 1016.18 1015.79 1015.40 1014.99 1014.61 1014.36 1014.13 1013.86 1013.61 1013.39 1013.20 1012.95 1012.27 1011.25 1010.27 1010.31 1010.44 1010.59 1010.55 1010.46 1010.35 1010.18 1009.91 1009.96 1009.95 1009.59 1009.41 1009.67 1010.01 1009.99 1010.14 1011.01 1011.30 1011.86 1012.25 1012.64 1013.53 1014.03 1014.63 1015.11 1015.38
1018.21 1017.69 1017.21 1016.73 1016.14 1015.62 1015.19 1014.74 1014.37 1014.05 1013.83 1013.62 1013.38 1013.10 1012.87 1012.65 1011.64 1010.26 1010.02 1010.25 1010.42 1010.44 1010.41 1010.46 1010.37 1010.08 1009.82 1009.91 1009.98 1009.87 1009.53 1009.93 1010.13 1010.18 1010.31 1010.94 1011.64 1012.11 1012.18 1012.59 1012.85 1013.27 1014.33 1015.03 1015.20
1018.37 1017.77 1017.12 1016.51 1016.05 1015.45 1014.91 1014.47 1014.06 1013.73 1013.52 1013.36 1013.15 1012.86 1012.59 1012.15 1011.12 1009.94 1009.96 1010.19 1010.41 1010.31 1010.27 1010.26 1010.09 1009.82 1009.77 1009.70 1010.04 1009.81 1010.03 1009.97 1010.22 1010.51 1010.73 1011.08 1011.80 1012.14 1012.53 1012.32 1012.83 1013.69 1014.29 1014.72 1014.85
1018.58 1017.90 1017.19 1016.51 1015.82 1015.25 1014.66 1014.14 1013.76 1013.48 1013.27 1013.09 1012.90 1012.67 1012.33 1011.44 1010.13 1009.87 1010.12 1010.33 1010.30 1010.26 1010.15 1009.99 1009.78 1009.81 1009.73 1009.88 1009.97 1009.81 1010.13 1010.26 1010.45 1010.88 1011.03 1011.49 1011.87 1012.25 1012.74 1013.16 1013.64 1014.37 1014.83 1014.90 1015.01
1018.55 1017.91 1017.22 1016.45 1015.67 1014.99 1014.41 1013.83 1013.40 1013.16 1013.03 1012.91 1012.71 1012.59 1012.02 1010.65 1009.55 1009.73 1009.97 1010.20 1010.06 1010.04 1010.07 1009.99 1009.85 1009.93 1009.89 1010.04 1009.98 1009.97 1010.16 1010.36 1010.73 1011.08 1011.44 1011.45 1012.20 1012.42 1013.29 1013.73 1014.21 1014.61 1014.91 1015.13 1015.23
1018.52 1017.91 1017.19 1016.35 1015.48 1014.71 1014.03 1013.47 1013.02 1012.83 1012.78 1012.72 1012.63 1012.37 1011.59 1010.08 1009.54 1009.66 1009.81 1009.75 1009.97 1009.95 1009.85 1009.97 1009.97 1009.91 1010.07 1010.05 1010.38 1010.18 1010.03 1010.47 1010.83 1011.15 1011.52 1011.91 1012.53 1012.26 1012.97 1013.86 1014.35 1014.76 1015.15 1015.42 1015.64
1018.47 1017.78 1017.12 1016.30 1015.36 1014.58 1013.79 1013.09 1012.56 1012.53 1012.49 1012.49 1012.52 1012.19 1010.65 1009.49 1009.61 1009.61 1009.65 1009.79 1009.97 1010.01 1009.96 1009.98 1010.07 1010.05 1010.14 1010.47 1010.45 1010.17 1010.25 1010.06 1010.72 1010.95 1011.51 1011.61 1011.53 1012.28 1013.07 1013.62 1014.23 1014.76 1015.22 1015.51 1015.65
1018.65 1017.88 1017.07 1016.15 1015.22 1014.43 1013.66 1012.97 1012.37 1012.42 1012.37 1012.39 1012.36 1011.82 1009.95 1009.33 1009.35 1008.95 1009.09 1009.28 1009.52 1009.85 1009.95 1010.10 1010.16 1010.45 1010.49 1010.09 1010.22 1010.39 1009.87 1010.12 1010.42 1010.87 1011.14 1011.59 1011.02 1011.68 1012.82 1013.49 1013.97 1014.49 1014.78 1015.14 1015.41
1018.81 1018.00 1017.17 1016.13 1015.12 1014.30 1013.59 1013.17 1012.71 1012.31 1012.32 1012.23 1012.09 1011.79 1009.76 1009.09 1008.76 1008.90 1009.17 1009.21 1009.32 1009.63 1009.85 1010.12 1010.36 1010.39 1010.43 1010.02 1009.53 1009.79 1009.94 1010.17 1010.19 1010.75 1011.10 1011.18 1011.11 1011.87 1012.53 1013.05 1013.22 1014.01 1014.57 1014.87 1015.08
1018.87 1018.04 1017.15 1016.14 1015.13 1014.18 1013.44 1013.05 1013.09 1012.59 1011.99 1011.27 1010.98 1010.53 1009.67 1008.88 1008.57 1008.62 1008.86 1009.07 1009.37 1009.58 1009.68 1010.31 1010.17 1009.88 1009.80 1010.01 1010.01 1010.02 1010.04 1010.09 1010.49 1010.77 1010.81 1010.73 1011.10 1011.61 1012.39 1013.05 1013.28 1013.60 1013.90 1014.19 1014.46
1018.91 1018.03 1017.19 1015.92 1014.84 1013.97 1013.71 1013.24 1013.64 1013.69 1012.16 1010.48 1010.03 1010.00 1009.46 1009.11 1008.75 1008.59 1008.64 1008.97 1009.29 1009.43 1009.98 1010.22 1009.70 1009.77 1010.12 1010.22 1010.10 1010.19 1010.18 1010.22 1010.67 1010.89 1010.86 1010.93 1011.21 1011.68 1012.25 1012.11 1012.36 1012.90 1013.39 1013.75 1014.19
1018.86 1018.03 1017.11 1015.97 1014.77 1014.11 1014.24 1013.60 1013.58 1013.41 1012.55 1010.07 1009.44 1008.93 1008.71 1008.92 1008.79 1008.49 1008.59 1008.76 1009.05 1009.45 1009.66 1009.60 1009.56 1009.79 1009.85 1010.13 1010.09 1010.30 1010.23 1010.46 1010.57 1011.03 1011.28 1011.17 1011.34 1011.84 1012.38 1012.64 1012.78 1012.93 1013.21 1013.68 1013.84
1018.80 1017.97 1017.16 1016.12 1014.89 1015.03 1014.18 1013.92 1013.75 1013.53 1012.11 1009.89 1008.89 1008.01 1008.22 1008.28 1008.55 1008.15 1008.36 1008.63 1009.17 1009.31 1009.67 1009.51 1009.52 1009.58 1009.70 1009.88 1010.13 1010.29 1010.61 1010.79 1011.01 1011.09 1011.20 1011.71 1010.79 1011.35 1011.97 1012.21 1012.41 1012.32 1012.54 1012.80 1013.27
1018.50 1017.78 1017.20 1016.94 1016.22 1015.04 1014.47 1014.06 1013.51 1013.48 1011.51 1009.25 1008.22 1007.72 1007.76 1007.64 1007.85 1008.19 1008.41 1008.58 1009.02 1009.40 1009.83 1009.31 1009.28 1009.37 1009.51 1009.66 1010.13 1010.62 1011.02 1011.35 1011.59 1011.62 1011.83 1011.93 1011.65 1010.80 1011.63 1011.32 1011.63 1012.19 1012.29 1012.37 1012.79
1018.11 1017.36 1017.09 1016.57 1016.53 1014.90 1014.43 1013.83 1013.38 1012.73 1010.55 1008.71 1007.93 1007.67 1007.75 1007.71 1007.69 1008.03 1008.27 1008.70 1009.55 1009.64 1009.83 1009.57 1009.53 1009.34 1009.33 1010.09 1010.41 1011.07 1011.52 1012.08 1012.41 1012.28 1012.03 1011.92 1011.80 1010.48 1010.86 1011.03 1011.36 1011.87 1012.16 1012.35 1012.65
1017.59 1016.71 1016.51 1016.29 1015.17 1014.69 1014.33 1013.28 1012.97 1011.65 1010.02 1009.04 1008.20 1007.91 1007.71 1007.69 1007.78 1007.83 1008.16 1008.74 1009.10 1009.73 1009.76 1009.74 1009.51 1009.47 1009.47 1010.01 1010.91 1011.08 1011.43 1011.96 1012.38 1012.42 1012.21 1012.84 1012.35 1010.74 1011.19 1011.45 1011.57 1011.79 1012.13 1012.40 1012.72
1017.11 1016.29 1016.05 1015.40 1014.97 1014.88 1014.07 1013.21 1012.05 1010.58 1009.77 1009.13 1008.64 1008.27 1008.07 1007.91 1008.01 1008.05 1008.21 1008.58 1009.23 1009.43 1009.73 1009.56 1009.57 1009.41 1009.45 1009.59 1010.03 1011.03 1011.39 1011.93 1012.37 1012.70 1012.74 1013.19 1012.04 1011.17 1011.58 1011.68 1011.77 1011.89 1012.13 1012.46 1012.98
1017.21 1016.03 1015.52 1014.73 1014.78 1014.79 1013.77 1012.59 1011.30 1010.67 1009.96 1009.47 1008.87 1008.64 1008.64 1008.50 1008.31 1008.41 1008.38 1008.34 1008.41 1008.88 1009.19 1009.51 1009.54 1009.50 1009.77 1009.92 1010.40 1011.46 1011.83 1012.33 1012.85 1013.99 1013.39 1012.51 1012.08 1011.37 1011.41 1011.48 1011.66 1011.95 1012.27 1012.63 1013.45
1017.79 1016.68 1015.33 1014.78 1014.63 1014.07 1013.31 1012.27 1011.56 1010.80 1010.17 1009.81 1009.48 1009.38 1009.24 1009.21 1008.92 1008.88 1008.71 1008.21 1008.39 1008.50 1008.51 1009.17 1009.57 1009.87 1010.20 1010.15 1010.87 1010.91 1011.77 1012.42 1012.79 1013.23 1012.92 1012.35 1012.05 1011.07 1011.15 1011.09 1011.42 1011.85 1012.04 1012.90 1014.04
1017.65 1016.25 1014.90 1014.60 1014.53 1013.79 1013.04 1012.44 1011.71 1010.89 1010.40 1010.14 1010.21 1010.13 1010.09 1009.76 1009.57 1009.35 1009.07 1008.48 1008.22 1008.58 1008.89 1009.07 1009.44 1010.20 1010.30 1010.12 1010.21 1011.25 1011.39 1012.19 1012.63 1013.09 1012.92 1012.50 1011.36 1011.07 1010.85 1010.87 1011.13 1011.33 1012.09 1013.22 1014.13
1018.21 1016.48 1014.93 1014.70 1014.47 1014.27 1013.31 1012.78 1012.12 1011.23 1010.82 1010.55 1010.55 1010.69 1010.59 1010.63 1009.93 1009.67 1009.22 1008.83 1008.58 1008.61 1009.03 1009.24 1009.28 1009.43 1009.66 1010.33 1010.54 1010.65 1010.73 1011.22 1011.85 1012.87 1013.37 1012.85 1011.49 1011.18 1011.33 1011.37 1011.63 1011.85 1012.63 1013.71 1014.67
1018.89 1017.40 1015.26 1014.78 1014.54 1014.25 1013.80 1013.03 1012.38 1011.77 1011.53 1011.36 1011.23 1011.14 1011.09 1011.05 1010.93 1010.08 1009.34 1008.70 1008.81 1008.94 1008.74 1009.37 1009.64 1009.66 1009.87 1010.45 1010.59 1010.41 1010.79 1011.19 1011.70 1012.21 1012.29 1012.34 1011.26 1011.35 1011.59 1011.66 1012.00 1012.48 1013.35 1014.39 1015.44
1019.28 1017.79 1016.29 1015.57 1015.83 1015.12 1014.55 1013.77 1013.01 1012.57 1012.41 1012.20 1011.85 1011.69 1011.71 1011.58 1011.36 1010.62 1010.14 1009.42 1009.54 1009.46 1009.21 1009.42 1009.64 1009.16 1008.89 1008.53 1009.11 1009.90 1010.34 1010.95 1011.08 1011.54 1011.34 1011.49 1010.92 1011.09 1011.66 1012.00 1012.69 1013.38 1014.23 1015.04 1015.97
1019.51 1018.78 1018.54 1016.94 1016.33 1016.05 1015.63 1014.93 1013.97 1013.46 1013.29 1013.06 1012.68 1012.73 1012.45 1012.13 1011.81 1011.46 1011.27 1010.87 1010.18 1010.33 1010.36 1010.21 1009.75 1009.66 1009.33 1009.18 1009.18 1009.26 1009.58 1010.37 1010.71 1010.98 1011.08 1010.82 1011.20 1011.25 1011.92 1012.45 1013.31 1014.17 1014.97 1015.79 1016.75
1019.87 1019.38 1019.06 1018.03 1017.40 1016.83 1016.31 1015.88 1015.13 1014.69 1014.34 1013.73 1013.28 1013.23 1012.82 1012.41 1012.25 1012.23 1012.21 1012.08 1011.96 1011.49 1011.18 1010.95 1010.33 1009.97 1009.95 1009.82 1009.61 1009.48 1009.77 1010.21 1010.63 1010.90 1011.02 1011.16 1011.26 1011.75 1012.57 1013.16 1013.91 1014.60 1015.48 1016.51 1017.51
1020.67 1020.35 1019.53 1018.72 1017.91 1017.49 1016.97 1016.75 1016.16 1015.75 1014.82 1014.66 1014.49 1013.94 1013.23 1012.94 1012.61 1012.35 1012.59 1012.69 1012.73 1012.69 1012.16 1011.67 1010.97 1010.62 1010.21 1010.25 1010.25 1009.96 1009.61 1009.84 1010.20 1010.55 1010.61 1010.79 1010.98 1012.03 1012.96 1013.73 1014.63 1015.34 1016.25 1017.28 1018.31
Wind_Speed
20 19 17 16 15 14 13 11 11 11 11 11 11 10 10 9 7 2 3 2 4 7 5 3 1 3 1 3 2 2 3 7 6 12 9 6 6 3 2 6 4 4 3 11 13
20 19 18 18 16 15 14 13 11 10 11 11 10 10 9 8 2 3 1 8 8 8 2 2 1 0 3 2 2 2 4 4 2 7 13 9 6 7 4 5 6 11 14 13 12
20 20 19 19 18 17 15 13 12 11 10 10 10 10 9 5 2 1 7 9 7 5 3 2 2 1 3 1 3 2 5 4 4 6 16 11 7 3 12 4 8 17 17 13 13
21 22 22 21 19 18 17 14 14 12 10 9 10 10 9 3 2 1 8 9 6 4 2 3 2 2 2 3 2 3 2 2 9 10 9 13 11 11 2 2 6 14 17 14 14
20 22 23 22 22 20 18 16 14 12 9 8 9 9 3 2 1 3 9 9 5 2 2 2 4 2 3 2 2 1 5 3 8 8 9 14 9 5 4 8 13 14 12 13 10
21 22 22 23 23 22 19 17 13 10 8 6 7 9 2 4 2 9 10 6 3 2 2 0 3 1 4 2 1 1 6 8 8 10 8 13 6 4 5 12 12 13 12 10 11
21 22 23 24 24 24 23 19 13 8 6 4 5 2 1 1 3 8 9 4 5 3 2 1 2 0 2 4 2 2 5 10 8 11 8 10 6 7 16 14 14 14 11 9 9
23 24 25 26 26 25 25 21 11 5 0 2 1 1 5 0 1 5 6 4 3 3 1 1 1 3 1 3 3 2 1 9 8 11 6 9 12 7 17 18 17 15 12 11 13
23 24 26 27 28 27 25 19 2 5 4 3 0 2 3 2 3 2 4 3 3 3 1 4 3 3 3 4 4 1 6 7 6 10 7 9 5 14 19 18 18 17 16 15 14
23 23 25 27 28 27 24 6 4 5 2 2 1 2 3 2 2 2 2 2 3 5 4 2 3 3 3 6 8 7 5 2 3 7 10 15 7 9 20 21 21 17 15 15 15
23 23 25 28 28 28 10 3 1 2 1 4 3 4 7 6 1 2 4 6 2 2 3 2 4 6 8 4 2 5 4 3 2 2 10 14 8 10 18 17 17 17 17 17 16
25 24 25 27 28 24 3 4 4 3 8 8 12 8 7 3 3 2 6 5 4 4 3 3 5 3 5 7 5 5 4 3 3 2 7 7 9 3 15 21 20 19 18 17 14
25 24 25 27 31 3 5 8 4 3 4 5 5 5 5 9 4 4 8 4 3 5 6 4 2 4 6 6 8 3 4 4 1 3 4 4 6 6 6 10 11 14 14 15 17
26 23 24 28 2 4 3 4 8 4 3 4 4 4 6 8 4 6 6 4 2 7 5 3 1 6 8 6 4 5 4 5 4 3 5 3 6 5 8 10 10 13 15 18 18
25 23 21 13 7 4 5 10 6 4 4 1 3 4 3 13 5 4 2 3 5 5 4 3 5 6 5 4 6 2 2 3 2 3 2 3 5 4 3 10 11 9 12 15 16
25 24 22 1 2 7 10 13 4 1 7 1 4 5 8 5 4 4 4 6 2 3 1 2 2 2 2 5 1 12 5 5 3 1 5 3 6 5 5 4 2 4 9 12 12
26 27 13 2 3 5 9 3 3 4 3 2 1 2 8 7 5 5 9 8 7 4 5 2 2 1 2 7 5 3 5 2 3 4 2 2 4 6 3 4 5 9 10 9 8
29 25 3 4 5 7 3 2 4 4 3 3 3 1 9 5 6 4 9 9 4 4 3 6 6 6 5 5 6 5 4 4 3 2 2 2 5 2 1 5 6 8 10 9 6
25 5 2 4 4 3 2 6 5 4 1 2 2 2 2 1 1 5 7 9 9 10 6 6 5 1 1 3 2 6 5 3 6 2 3 0 2 8 3 2 7 8 8 9 4
6 4 3 5 4 1 2 4 2 2 2 2 1 1 3 4 1 3 7 4 7 12 7 6 3 1 3 3 9 2 11 4 2 3 4 3 4 4 5 9 9 9 13 7 7
3 3 2 3 3 1 3 4 3 3 1 1 1 2 1 1 1 1 2 4 6 6 8 8 5 3 4 6 8 6 5 5 4 1 3 2 2 4 8 10 12 12 8 5 7
4 3 4 1 2 1 3 2 3 1 2 1 2 2 2 2 3 4 6 6 1 9 10 7 6 10 9 3 1 1 4 6 5 5 1 1 6 2 4 6 6 8 5 7 9
4 4 2 3 2 2 1 2 1 3 4 2 2 1 2 2 3 6 6 2 6 9 10 10 4 6 4 4 3 6 5 3 5 2 8 4 5 3 0 2 2 5 9 10 10
2 2 2 3 2 2 2 1 1 4 3 2 0 3 2 2 4 5 4 3 1 4 2 6 4 8 10 13 5 7 8 9 6 5 6 8 10 4 2 2 5 9 10 10 8
2 2 1 2 3 4 2 3 1 1 3 3 5 5 1 1 3 1 3 8 3 5 4 3 7 5 3 4 6 6 14 14 12 7 8 5 7 5 3 5 9 10 10 9 7
2 1 1 1 4 4 2 1 1 2 2 1 3 6 2 4 2 2 2 4 3 9 3 2 4 4 4 4 5 4 9 12 9 7 10 7 10 3 3 8 9 9 9 8 7
1 0 3 2 0 1 0 0 2 3 1 2 4 6 2 2 6 4 5 2 5 2 3 4 5 6 5 6 2 7 12 12 7 7 8 9 5 10 9 9 8 8 8 8 8
Wind_Direction
4 2 358 355 352 350 345 334 318 308 302 302 305 309 313 319 312 203 245 151 163 156 163 141 214 339 37 85 74 162 117 134 133 152 138 144 142 53 45 100 62 46 103 128 141
360 357 355 352 349 345 342 337 325 311 303 303 305 309 311 320 263 243 214 152 147 167 137 88 147 153 83 63 51 28 105 106 134 145 148 134 145 126 151 117 76 97 115 132 148
357 355 353 351 347 342 339 334 327 316 306 302 306 308 310 306 244 91 140 165 157 166 100 105 110 71 81 8 37 107 90 145 132 151 145 136 131 102 140 167 178 160 150 148 151
355 353 350 348 347 341 337 333 328 320 312 308 309 310 313 236 147 159 153 162 148 121 104 108 96 94 82 87 47 139 137 114 132 139 140 148 132 141 328 145 145 143 146 150 153
353 352 349 346 343 341 335 332 326 320 315 312 312 316 279 184 190 133 137 139 133 127 60 79 61 110 103 95 103 119 100 161 145 137 132 139 144 134 157 120 128 139 153 153 140
352 351 348 344 341 338 336 329 318 313 310 306 310 314 289 168 121 155 151 154 138 136 107 101 69 92 96 88 33 93 98 128 146 142 151 152 152 191 148 142 147 155 158 160 153
351 350 347 343 340 337 335 327 311 304 307 310 314 322 316 166 121 161 171 172 163 162 90 150 132 334 143 125 28 93 121 130 146 160 155 140 155 206 153 164 164 171 173 173 177
350 348 346 343 339 336 336 329 309 282 321 298 249 283 249 99 91 173 175 148 172 187 231 196 123 89 2 121 58 107 91 173 148 174 156 212 190 176 167 169 177 180 184 190 198
348 346 343 340 337 335 335 327 69 138 101 113 167 343 255 315 248 238 202 163 135 148 196 93 92 69 145 165 154 79 184 204 172 192 162 216 178 185 177 181 183 191 195 199 209
345 343 340 337 333 333 330 305 94 139 98 162 138 272 245 157 225 154 140 148 83 122 120 85 68 156 138 192 201 177 175 183 194 166 193 199 214 164 182 187 196 197 202 206 211
341 339 337 333 329 330 338 274 256 169 19 209 222 266 282 292 222 182 149 128 106 97 156 69 208 200 193 195 112 145 157 173 180 199 203 211 220 187 187 201 201 202 202 204 208
339 336 335 332 327 322 268 67 76 355 298 237 246 253 254 319 335 193 152 158 181 174 142 171 206 177 146 156 146 160 176 177 142 54 213 189 205 214 190 208 205 204 207 207 210
336 334 335 333 323 354 328 122 6 164 260 290 206 207 203 174 227 238 179 158 167 162 190 218 115 133 156 154 153 164 194 177 186 113 80 163 191 182 190 230 236 234 226 212 211
333 332 335 334 282 340 282 20 338 218 309 270 225 231 149 144 224 198 184 146 170 203 177 228 129 161 151 174 186 177 180 145 139 202 231 313 245 210 185 222 232 233 217 213 210
326 331 334 329 309 269 20 327 331 228 314 89 162 129 151 175 141 155 137 118 197 172 208 160 173 168 178 192 185 107 120 82 77 118 235 180 253 226 231 239 213 216 217 211 203
325 328 336 124 208 266 316 318 192 225 250 348 140 171 157 196 139 116 134 76 73 112 321 279 299 222 139 85 72 141 101 67 73 123 250 261 257 220 210 247 209 169 179 181 198
324 326 324 205 318 330 310 287 162 202 345 32 75 162 179 175 148 164 166 167 189 166 219 262 215 286 160 118 112 152 155 234 204 195 283 103 247 285 292 261 264 178 181 191 199
325 320 187 236 279 325 290 157 196 223 238 335 3 326 201 158 201 151 158 188 162 131 140 206 205 197 169 225 195 184 212 177 217 214 59 157 240 86 296 291 241 201 206 205 198
320 326 283 309 251 198 193 200 207 213 326 341 118 110 108 95 240 190 207 219 195 176 215 176 245 92 49 121 218 145 199 88 109 75 254 225 247 253 237 221 189 191 194 199 148
316 329 317 344 152 234 172 227 247 226 356 348 28 55 110 13 30 217 190 208 210 198 197 176 218 27 123 118 60 233 138 151 129 192 249 199 266 251 210 221 207 202 212 184 122
327 335 75 327 281 314 193 219 267 246 238 108 134 3 117 6 337 269 293 266 212 175 196 163 210 157 178 207 190 150 179 70 113 201 218 267 234 215 220 217 217 224 212 154 135
346 305 20 275 204 343 186 193 321 258 300 109 151 211 252 297 227 230 229 228 64 154 181 188 197 214 204 109 180 239 200 179 213 192 190 284 259 176 275 268 248 245 185 130 120
341 292 327 283 215 194 319 238 301 4 33 54 129 106 152 208 288 241 235 230 185 185 172 176 202 199 174 173 157 215 181 150 106 103 207 187 244 146 21 201 210 142 128 121 123
295 316 325 51 33 30 8 339 160 27 107 0 7 81 13 267 248 274 294 10 342 253 135 139 156 205 210 223 153 182 189 188 194 210 236 229 264 229 224 205 127 121 117 117 108
347 75 19 10 60 4 305 330 296 70 17 326 131 62 58 275 297 290 347 332 342 35 358 217 217 197 238 201 174 176 184 176 201 203 220 244 213 265 277 177 133 123 128 124 107
328 315 125 349 326 319 344 118 264 328 282 3 83 355 186 186 151 4 338 18 11 330 286 273 213 152 173 173 200 190 178 185 201 197 240 249 250 214 128 130 137 133 128 111 88
38 106 280 65 79 250 294 177 83 312 210 277 41 335 293 1 275 233 210 267 269 280 301 302 162 175 206 174 144 253 214 197 191 207 230 226 265 154 148 133 105 110 106 97 75